Content
SEND FEEDBACK

Daily
Averages
Monthly
Summary
Switzerland

GENEVA, SWITZERLAND


Home > Europe > Switzerland
Elevation: 1364 feet     Latitude: 46 15N     Longitude: 006 08E

WEATHER
 
SELECT A DAY
Number of Records: 313,363;   Date Range: 7/1/96 - 10/23/14
 
SHARE

PRINT THIS DATA

[ ← Previous Day ]
WEATHER ALMANAC - JULY 13, 2013
[ Next Day → ]
[ °C ]   °F
Weather ElementAverageHighLow
Temperature70.1 °F82.4 °F (5:20 pm)55.4 °F (5:50 am)
Dewpoint54.9 °F60.8 °F (7:50 pm)51.8 °F (12:50 pm)
Humidity58.2 %94 % (4:20 am)27 % (5:00 pm)
Barometer30.08 in30.12 in (7:50 am)30.00 in (6:00 pm)
Wind Speed4.1 mph13.4 mph (11:00 am)
Weather ElementAverage
Visibility8.5 mi
Wind DirectionENE (63.6 °)

Weather ElementTotal
Precipitation---
Cooling Degree Days3.9 (Base 65)
Growing Degree Days18.9 (Base 50)
Averaged from 70 records on July 13, 2013
WEATHER CONDITIONS BREAKOUT
WIND DIRECTION BREAKOUT
WEATHER BY HOUR - JULY 13, 2013
[ °C ]   °F
Local TimeTemperatureDewpointHumidityBarometerVisibilityWind DirectionWind SpeedGust SpeedPrecipitationEventsConditions
12:20 AM64.4 °F57.2 °F77 %30.09 inVariable1.2 mphClear
12:50 AM62.6 °F57.2 °F82 %30.09 inCalmClear
1:00 AM63.0 °F56.0 °F70 %30.07 inWSW (240°)1.2 mph
1:20 AM62.6 °F57.2 °F82 %30.09 inCalmClear
1:50 AM62.6 °F55.4 °F77 %30.09 inVariable1.2 mphClear
2:00 AM61.0 °F55.0 °F74 %30.08 in19.0 miWNW (300°)1.2 mph
2:20 AM60.8 °F55.4 °F82 %30.09 inVariable1.2 mphClear
2:50 AM60.8 °F55.4 °F82 %30.09 inVariable2.3 mphClear
3:00 AM60.0 °F55.0 °F78 %30.08 inWNW (290°)1.2 mph
3:50 AM59.0 °F55.4 °F88 %30.09 inCalmClear
4:00 AM59.0 °F55.0 °F84 %30.09 inWNW (300°)1.2 mph
4:20 AM57.2 °F55.4 °F94 %30.09 inCalmClear
4:50 AM57.2 °F53.6 °F88 %30.09 inVariable1.2 mphClear
5:00 AM58.0 °F54.0 °F81 %30.09 in19.0 miNNW (340°)1.2 mphPartly Cloudy
5:20 AM57.2 °F53.6 °F88 %30.09 in6.2 miCalmPartly Cloudy
5:50 AM55.4 °F53.6 °F94 %30.09 in6.2 miCalmPartly Cloudy
6:00 AM57.0 °F52.0 °F76 %30.10 inWNW (290°)1.2 mph
6:20 AM55.4 °F53.6 °F94 %30.09 in6.2 miVariable1.2 mphMostly Cloudy
6:50 AM57.2 °F53.6 °F88 %30.09 in6.2 miCalmMostly Cloudy
7:00 AM58.0 °F53.0 °F78 %30.10 inWest (260°)1.2 mph
7:20 AM60.8 °F55.4 °F82 %30.09 in6.2 miCalmScattered Clouds
7:50 AM62.6 °F55.4 °F77 %30.12 in6.2 miCalmScattered Clouds
8:00 AM63.0 °F56.0 °F71 %30.09 in19.0 miNNE (30°)1.2 mphScattered Clouds
8:20 AM66.2 °F57.2 °F73 %30.12 inVariable1.2 mphClear
8:50 AM68.0 °F57.2 °F68 %30.12 inVariable2.3 mphClear
9:00 AM67.0 °F54.0 °F55 %30.08 inNNE (30°)2.3 mph
9:20 AM69.8 °F55.4 °F60 %30.12 inVariable2.3 mphClear
9:50 AM71.6 °F55.4 °F57 %30.12 in6.2 miVariable1.2 mphPartly Cloudy
10:00 AM69.0 °F54.0 °F48 %30.08 inEast (100°)2.3 mph
10:20 AM71.6 °F55.4 °F57 %30.12 in6.2 miEast (90°)4.6 mphPartly Cloudy
10:50 AM71.6 °F53.6 °F53 %30.12 in6.2 miENE (70°)6.9 mphPartly Cloudy
11:00 AM71.0 °F53.0 °F41 %30.07 in16.0 miENE (70°)13.4 mphScattered Clouds
11:20 AM71.6 °F55.4 °F57 %30.09 in6.2 miNE (50°)6.9 mphPartly Cloudy
11:50 AM75.2 °F53.6 °F47 %30.09 in6.2 miNE (50°)6.9 mphPartly Cloudy
12:00 PM73.0 °F52.0 °F36 %30.06 inENE (60°)6.9 mph
12:20 PM75.2 °F53.6 °F47 %30.09 in6.2 miNE (50°)5.8 mphPartly Cloudy
12:50 PM75.2 °F51.8 °F44 %30.09 in6.2 miEast (100°)6.9 mphPartly Cloudy
1:00 PM76.0 °F52.0 °F32 %30.04 inEast (90°)5.8 mph
1:20 PM77.0 °F53.6 °F44 %30.09 in6.2 miENE (60°)5.8 mphPartly Cloudy
1:50 PM77.0 °F53.6 °F44 %30.09 in6.2 miESE (110°)5.8 mphPartly Cloudy
2:00 PM76.0 °F52.0 °F33 %30.03 in19.0 miENE (70°)5.8 mphScattered Clouds
2:20 PM78.8 °F53.6 °F42 %30.09 in6.2 miEast (90°)4.6 mphPartly Cloudy
2:50 PM78.8 °F53.6 °F42 %30.09 in6.2 miEast (90°)6.9 mphPartly Cloudy
3:00 PM78.0 °F53.0 °F30 %30.02 inEast (80°)6.9 mph
3:20 PM78.8 °F55.4 °F44 %30.06 in6.2 miEast (80°)6.9 mphPartly Cloudy
3:50 PM80.6 °F55.4 °F42 %30.06 in6.2 miVariable6.9 mphPartly Cloudy
4:00 PM79.0 °F53.0 °F30 %30.01 inNE (50°)6.9 mph
4:20 PM80.6 °F53.6 °F39 %30.06 in6.2 miENE (60°)6.9 mphPartly Cloudy
4:50 PM80.6 °F55.4 °F42 %30.06 in6.2 miENE (60°)5.8 mphPartly Cloudy
5:00 PM80.0 °F52.0 °F27 %30.01 in19.0 miENE (60°)6.9 mphScattered Clouds
5:20 PM82.4 °F53.6 °F37 %30.06 in6.2 miENE (70°)8.1 mphPartly Cloudy
5:50 PM80.6 °F55.4 °F42 %30.06 in6.2 miNE (50°)6.9 mphPartly Cloudy
6:00 PM80.0 °F53.0 °F28 %30.00 inENE (60°)8.1 mph
6:20 PM80.6 °F55.4 °F42 %30.06 in6.2 miNE (50°)8.1 mphPartly Cloudy
6:50 PM80.6 °F57.2 °F45 %30.06 in6.2 miNE (40°)6.9 mphPartly Cloudy
7:00 PM79.0 °F55.0 °F34 %30.00 inNNE (30°)5.8 mph
7:20 PM78.8 °F57.2 °F47 %30.06 in6.2 miNNE (20°)4.6 mphPartly Cloudy
7:50 PM77.0 °F60.8 °F57 %30.06 in6.2 miNorth (10°)3.5 mphPartly Cloudy
8:00 PM77.0 °F60.0 °F46 %30.01 in22.0 miNorth (10°)3.5 mphScattered Clouds
8:20 PM78.8 °F60.8 °F54 %30.06 in6.2 miNorth (10°)4.6 mphScattered Clouds
8:50 PM77.0 °F59.0 °F54 %30.06 in6.2 miNNE (30°)5.8 mphPartly Cloudy
9:00 PM75.0 °F57.0 °F44 %30.02 inNNE (20°)4.6 mph
9:20 PM75.2 °F57.2 °F53 %30.06 in6.2 miNNE (20°)5.8 mphPartly Cloudy
9:50 PM73.4 °F55.4 °F53 %30.06 in6.2 miNorth (360°)4.6 mphPartly Cloudy
10:00 PM71.0 °F55.0 °F47 %30.04 inNorth (10°)11.2 mph
10:20 PM71.6 °F55.4 °F57 %30.09 in6.2 miNorth (10°)5.8 mphPartly Cloudy
10:50 PM69.8 °F53.6 °F56 %30.09 in6.2 miNorth (10°)4.6 mphPartly Cloudy
11:00 PM70.0 °F53.0 °F44 %30.06 in12.0 miNorth (10°)5.8 mphScattered Clouds
11:20 PM69.8 °F53.6 °F56 %30.09 inNorth (10°)4.6 mphClear
11:50 PM68.0 °F53.6 °F60 %30.12 inVariable2.3 mphClear
Hourly data recorded from LSGG, located miles away from Geneva, Switzerland







STORIES FROM OUR PARTNERS